Time,TemperatureF,DewpointF,PressureIn,WindDirection,WindDirectionDegrees,WindSpeedMPH,WindSpeedGustMPH,Humidity,HourlyPrecipIn,Conditions,Clouds,dailyrainin,SoftwareType,DateUTC
2013-02-08 00:00:00,45.0,42.5,29.89,ESE,120,1.0,1.0,91,0.00,,,0.09,Wunderground v.1.15,2013-02-08 05:00:00,
2013-02-08 00:06:00,45.0,42.5,29.89,ESE,121,1.0,1.0,91,0.00,,,0.00,Wunderground v.1.15,2013-02-08 05:06:00,
2013-02-08 00:15:00,45.0,42.8,29.89,ESE,121,0.0,0.0,92,0.00,,,0.00,Wunderground v.1.15,2013-02-08 05:15:00,
2013-02-08 00:20:00,45.0,42.8,29.89,ESE,121,0.0,0.0,92,0.00,,,0.00,Wunderground v.1.15,2013-02-08 05:20:00,
2013-02-08 00:25:00,44.9,42.7,29.89,ESE,121,0.0,0.0,92,0.00,,,0.00,Wunderground v.1.15,2013-02-08 05:25:00,
2013-02-08 00:35:00,44.7,42.8,29.89,ESE,121,0.0,0.0,93,0.00,,,0.00,Wunderground v.1.15,2013-02-08 05:35:00,
2013-02-08 00:40:00,44.7,42.8,29.88,ESE,121,0.0,0.0,93,0.00,,,0.00,Wunderground v.1.15,2013-02-08 05:40:00,
2013-02-08 00:45:00,44.6,42.7,29.88,ESE,121,0.0,0.0,93,0.00,,,0.00,Wunderground v.1.15,2013-02-08 05:45:00,
2013-02-08 00:50:00,44.5,42.6,29.88,ESE,121,0.0,0.0,93,0.00,,,0.00,Wunderground v.1.15,2013-02-08 05:50:00,
2013-02-08 00:55:00,44.5,42.6,29.88,ESE,121,0.0,0.0,93,0.00,,,0.00,Wunderground v.1.15,2013-02-08 05:55:00,
2013-02-08 01:05:00,44.4,42.8,29.88,ESE,121,0.0,0.0,94,0.00,,,0.00,Wunderground v.1.15,2013-02-08 06:05:00,
2013-02-08 01:10:00,44.3,42.7,29.88,ESE,121,0.0,0.0,94,0.00,,,0.00,Wunderground v.1.15,2013-02-08 06:10:00,
2013-02-08 01:20:00,44.2,42.6,29.88,ESE,121,0.0,0.0,94,0.00,,,0.00,Wunderground v.1.15,2013-02-08 06:20:00,
2013-02-08 01:25:00,44.2,42.6,29.88,ESE,121,0.0,0.0,94,0.00,,,0.00,Wunderground v.1.15,2013-02-08 06:25:00,
2013-02-08 01:30:00,44.1,42.5,29.88,ESE,121,0.0,0.0,94,0.00,,,0.00,Wunderground v.1.15,2013-02-08 06:30:00,
2013-02-08 01:40:00,44.0,42.7,29.88,ESE,121,0.0,0.0,95,0.00,,,0.00,Wunderground v.1.15,2013-02-08 06:40:00,
2013-02-08 01:45:00,44.0,42.7,29.88,ESE,121,0.0,0.0,95,0.00,,,0.00,Wunderground v.1.15,2013-02-08 06:45:00,
2013-02-08 01:50:00,43.9,42.6,29.88,ESE,121,0.0,0.0,95,0.00,,,0.00,Wunderground v.1.15,2013-02-08 06:50:00,
2013-02-08 01:55:00,43.9,42.6,29.88,ESE,121,0.0,0.0,95,0.00,,,0.00,Wunderground v.1.15,2013-02-08 06:55:00,
2013-02-08 02:00:00,43.8,42.5,29.88,ESE,121,0.0,0.0,95,0.00,,,0.00,Wunderground v.1.15,2013-02-08 07:00:00,
2013-02-08 02:05:00,43.8,42.5,29.88,ESE,121,0.0,0.0,95,0.00,,,0.00,Wunderground v.1.15,2013-02-08 07:05:00,
2013-02-08 02:10:00,43.7,42.4,29.88,ESE,121,0.0,0.0,95,0.00,,,0.00,Wunderground v.1.15,2013-02-08 07:10:00,
2013-02-08 02:20:00,43.7,42.4,29.88,ESE,121,0.0,0.0,95,0.00,,,0.00,Wunderground v.1.15,2013-02-08 07:20:00,
2013-02-08 02:25:00,43.7,42.4,29.88,ESE,121,0.0,0.0,95,0.00,,,0.00,Wunderground v.1.15,2013-02-08 07:25:00,
2013-02-08 02:30:00,43.7,42.6,29.88,ESE,121,0.0,0.0,96,0.00,,,0.00,Wunderground v.1.15,2013-02-08 07:30:00,
2013-02-08 02:35:00,43.7,42.6,29.88,ESE,121,0.0,0.0,96,0.00,,,0.01,Wunderground v.1.15,2013-02-08 07:35:00,
2013-02-08 02:40:00,43.7,42.6,29.88,ESE,121,0.0,0.0,96,0.10,,,0.02,Wunderground v.1.15,2013-02-08 07:40:00,
2013-02-08 02:45:00,43.7,42.6,29.88,ESE,121,0.0,0.0,96,0.07,,,0.02,Wunderground v.1.15,2013-02-08 07:45:00,
2013-02-08 02:50:00,43.7,42.6,29.88,ESE,121,0.0,0.0,96,0.05,,,0.02,Wunderground v.1.15,2013-02-08 07:50:00,
2013-02-08 02:55:00,43.7,42.6,29.87,ESE,121,0.0,0.0,96,0.00,,,0.02,Wunderground v.1.15,2013-02-08 07:55:00,
2013-02-08 03:00:00,43.7,42.6,29.87,ESE,121,0.0,0.0,96,0.00,,,0.02,Wunderground v.1.15,2013-02-08 08:00:00,
2013-02-08 03:05:00,43.7,42.6,29.88,ESE,121,0.0,0.0,96,0.00,,,0.02,Wunderground v.1.15,2013-02-08 08:05:00,
2013-02-08 03:10:00,43.7,42.6,29.88,ESE,121,0.0,0.0,96,0.00,,,0.02,Wunderground v.1.15,2013-02-08 08:10:00,
2013-02-08 03:15:00,43.7,42.6,29.87,ESE,121,0.0,0.0,96,0.00,,,0.02,Wunderground v.1.15,2013-02-08 08:15:00,
2013-02-08 03:20:00,43.6,42.5,29.87,ESE,121,0.0,0.0,96,0.00,,,0.02,Wunderground v.1.15,2013-02-08 08:20:00,
2013-02-08 03:25:00,43.6,42.5,29.87,ESE,121,0.0,0.0,96,0.00,,,0.02,Wunderground v.1.15,2013-02-08 08:25:00,
2013-02-08 03:30:00,43.6,42.5,29.87,ESE,121,0.0,0.0,96,0.00,,,0.02,Wunderground v.1.15,2013-02-08 08:30:00,
2013-02-08 03:35:00,43.6,42.5,29.87,ESE,121,0.0,0.0,96,0.00,,,0.02,Wunderground v.1.15,2013-02-08 08:35:00,
2013-02-08 03:40:00,43.5,42.4,29.86,ESE,121,0.0,0.0,96,0.00,,,0.02,Wunderground v.1.15,2013-02-08 08:40:00,
2013-02-08 03:45:00,43.6,42.5,29.86,ESE,121,0.0,0.0,96,0.00,,,0.02,Wunderground v.1.15,2013-02-08 08:45:00,
2013-02-08 03:50:00,43.5,42.4,29.86,ESE,121,0.0,0.0,96,0.00,,,0.02,Wunderground v.1.15,2013-02-08 08:50:00,
2013-02-08 03:55:00,43.5,42.4,29.86,ESE,121,0.0,0.0,96,0.00,,,0.02,Wunderground v.1.15,2013-02-08 08:55:00,
2013-02-08 04:00:00,43.4,42.3,29.86,ESE,121,0.0,0.0,96,0.00,,,0.02,Wunderground v.1.15,2013-02-08 09:00:00,
2013-02-08 04:05:00,43.3,42.2,29.86,ESE,121,0.0,0.0,96,0.00,,,0.02,Wunderground v.1.15,2013-02-08 09:05:00,
2013-02-08 04:10:00,43.3,42.2,29.86,ESE,121,0.0,0.0,96,0.00,,,0.02,Wunderground v.1.15,2013-02-08 09:10:00,
2013-02-08 04:15:00,43.3,42.2,29.87,ESE,121,0.0,0.0,96,0.00,,,0.02,Wunderground v.1.15,2013-02-08 09:15:00,
2013-02-08 04:20:00,43.3,42.2,29.87,ESE,121,0.0,0.0,96,0.00,,,0.02,Wunderground v.1.15,2013-02-08 09:20:00,
2013-02-08 04:25:00,43.3,42.2,29.86,ESE,121,0.0,0.0,96,0.00,,,0.02,Wunderground v.1.15,2013-02-08 09:25:00,
2013-02-08 04:30:00,43.3,42.2,29.87,ESE,121,0.0,0.0,96,0.00,,,0.02,Wunderground v.1.15,2013-02-08 09:30:00,
2013-02-08 04:35:00,43.3,42.2,29.87,ESE,121,0.0,0.0,96,0.00,,,0.02,Wunderground v.1.15,2013-02-08 09:35:00,
2013-02-08 04:40:00,43.4,42.3,29.87,ESE,121,0.0,0.0,96,0.00,,,0.02,Wunderground v.1.15,2013-02-08 09:40:00,
2013-02-08 04:45:00,43.4,42.3,29.87,ESE,121,0.0,0.0,96,0.00,,,0.02,Wunderground v.1.15,2013-02-08 09:45:00,
2013-02-08 04:50:00,43.4,42.3,29.87,ESE,121,0.0,0.0,96,0.00,,,0.02,Wunderground v.1.15,2013-02-08 09:50:00,
2013-02-08 04:55:00,43.4,42.3,29.87,ESE,121,0.0,0.0,96,0.00,,,0.02,Wunderground v.1.15,2013-02-08 09:55:00,
2013-02-08 05:00:00,43.4,42.3,29.88,ESE,121,0.0,0.0,96,0.00,,,0.02,Wunderground v.1.15,2013-02-08 10:00:00,
2013-02-08 05:05:00,43.4,42.3,29.88,ESE,121,0.0,0.0,96,0.00,,,0.02,Wunderground v.1.15,2013-02-08 10:05:00,
2013-02-08 05:10:00,43.4,42.3,29.88,ESE,121,0.0,0.0,96,0.00,,,0.02,Wunderground v.1.15,2013-02-08 10:10:00,
2013-02-08 05:15:00,43.3,42.2,29.87,ESE,121,0.0,0.0,96,0.00,,,0.02,Wunderground v.1.15,2013-02-08 10:15:00,
2013-02-08 05:20:00,43.3,42.2,29.88,ESE,121,0.0,0.0,96,0.00,,,0.02,Wunderground v.1.15,2013-02-08 10:20:00,
2013-02-08 05:25:00,43.3,42.2,29.88,ESE,121,0.0,0.0,96,0.00,,,0.02,Wunderground v.1.15,2013-02-08 10:25:00,
2013-02-08 05:30:00,43.2,42.1,29.88,ESE,121,0.0,0.0,96,0.00,,,0.02,Wunderground v.1.15,2013-02-08 10:30:00,
2013-02-08 05:35:00,43.2,42.1,29.88,ESE,121,0.0,0.0,96,0.00,,,0.02,Wunderground v.1.15,2013-02-08 10:35:00,
2013-02-08 05:45:00,43.2,42.4,29.88,ESE,121,0.0,0.0,97,0.00,,,0.02,Wunderground v.1.15,2013-02-08 10:45:00,
2013-02-08 05:50:00,43.2,42.4,29.89,ESE,121,0.0,0.0,97,0.00,,,0.02,Wunderground v.1.15,2013-02-08 10:50:00,
2013-02-08 05:55:00,43.3,42.5,29.88,ESE,121,0.0,0.0,97,0.00,,,0.02,Wunderground v.1.15,2013-02-08 10:55:00,
2013-02-08 06:00:00,43.3,42.5,29.88,ESE,121,0.0,0.0,97,0.00,,,0.02,Wunderground v.1.15,2013-02-08 11:00:00,
2013-02-08 06:05:00,43.2,42.4,29.89,ESE,121,0.0,0.0,97,0.00,,,0.02,Wunderground v.1.15,2013-02-08 11:05:00,
2013-02-08 06:15:00,43.2,42.4,29.89,ESE,121,0.0,0.0,97,0.00,,,0.02,Wunderground v.1.15,2013-02-08 11:15:00,
2013-02-08 06:20:00,43.2,42.4,29.89,ESE,121,0.0,0.0,97,0.00,,,0.02,Wunderground v.1.15,2013-02-08 11:20:00,
2013-02-08 06:25:00,43.2,42.4,29.89,ESE,121,0.0,0.0,97,0.00,,,0.02,Wunderground v.1.15,2013-02-08 11:25:00,
2013-02-08 06:30:00,43.2,42.4,29.89,ESE,121,0.0,0.0,97,0.00,,,0.02,Wunderground v.1.15,2013-02-08 11:30:00,
2013-02-08 06:35:00,43.2,42.4,29.90,ESE,121,0.0,0.0,97,0.00,,,0.02,Wunderground v.1.15,2013-02-08 11:35:00,
2013-02-08 06:40:00,43.1,42.3,29.90,ESE,121,0.0,0.0,97,0.00,,,0.02,Wunderground v.1.15,2013-02-08 11:40:00,
2013-02-08 06:50:00,43.0,42.2,29.90,ESE,121,0.0,0.0,97,0.00,,,0.02,Wunderground v.1.15,2013-02-08 11:50:00,
2013-02-08 06:55:00,43.0,42.2,29.90,ESE,121,0.0,0.0,97,0.00,,,0.02,Wunderground v.1.15,2013-02-08 11:55:00,
2013-02-08 07:00:00,42.8,42.0,29.90,ESE,121,0.0,0.0,97,0.00,,,0.02,Wunderground v.1.15,2013-02-08 12:00:00,
2013-02-08 07:05:00,42.8,42.0,29.90,ESE,121,0.0,0.0,97,0.00,,,0.02,Wunderground v.1.15,2013-02-08 12:05:00,
2013-02-08 07:10:00,42.7,41.9,29.90,ESE,121,0.0,0.0,97,0.00,,,0.02,Wunderground v.1.15,2013-02-08 12:10:00,
2013-02-08 07:15:00,42.7,41.9,29.90,ESE,121,0.0,0.0,97,0.00,,,0.02,Wunderground v.1.15,2013-02-08 12:15:00,
2013-02-08 07:20:00,42.6,41.8,29.90,ESE,121,0.0,0.0,97,0.00,,,0.02,Wunderground v.1.15,2013-02-08 12:20:00,
2013-02-08 07:25:00,42.5,41.7,29.90,ESE,121,0.0,0.0,97,0.00,,,0.02,Wunderground v.1.15,2013-02-08 12:25:00,
2013-02-08 07:30:00,42.5,41.7,29.90,ESE,121,0.0,0.0,97,0.00,,,0.02,Wunderground v.1.15,2013-02-08 12:30:00,
2013-02-08 07:35:00,42.4,41.6,29.90,ESE,121,0.0,0.0,97,0.00,,,0.02,Wunderground v.1.15,2013-02-08 12:35:00,
2013-02-08 07:40:00,42.2,41.4,29.90,ESE,121,0.0,0.0,97,0.00,,,0.02,Wunderground v.1.15,2013-02-08 12:40:00,
2013-02-08 07:50:00,42.1,41.3,29.91,ESE,121,0.0,0.0,97,0.00,,,0.02,Wunderground v.1.15,2013-02-08 12:50:00,
2013-02-08 07:55:00,42.2,41.4,29.91,ESE,121,0.0,0.0,97,0.00,,,0.02,Wunderground v.1.15,2013-02-08 12:55:00,
2013-02-08 08:00:00,42.5,41.7,29.91,ESE,121,0.0,0.0,97,0.00,,,0.02,Wunderground v.1.15,2013-02-08 13:00:00,
2013-02-08 08:06:00,42.9,42.1,29.91,ESE,121,0.0,0.0,97,0.00,,,0.02,Wunderground v.1.15,2013-02-08 13:06:00,
2013-02-08 08:15:00,43.2,42.4,29.91,ESE,121,0.0,0.0,97,0.00,,,0.02,Wunderground v.1.15,2013-02-08 13:15:00,
2013-02-08 08:20:00,43.2,42.7,29.91,ESE,121,0.0,0.0,98,0.00,,,0.02,Wunderground v.1.15,2013-02-08 13:20:00,
2013-02-08 08:25:00,43.1,42.3,29.91,ESE,121,0.0,0.0,97,0.00,,,0.02,Wunderground v.1.15,2013-02-08 13:25:00,
2013-02-08 08:30:00,43.0,42.2,29.92,ESE,121,0.0,0.0,97,0.00,,,0.02,Wunderground v.1.15,2013-02-08 13:30:00,
2013-02-08 08:35:00,43.1,42.3,29.92,ESE,121,0.0,0.0,97,0.00,,,0.02,Wunderground v.1.15,2013-02-08 13:35:00,
2013-02-08 08:40:00,43.2,42.4,29.93,ESE,121,0.0,0.0,97,0.00,,,0.02,Wunderground v.1.15,2013-02-08 13:40:00,
2013-02-08 08:45:00,43.1,42.3,29.93,ESE,121,0.0,0.0,97,0.00,,,0.02,Wunderground v.1.15,2013-02-08 13:45:00,
2013-02-08 08:50:00,42.9,42.1,29.93,ESE,121,0.0,0.0,97,0.00,,,0.02,Wunderground v.1.15,2013-02-08 13:50:00,
2013-02-08 08:55:00,42.9,42.1,29.93,ESE,121,0.0,0.0,97,0.00,,,0.02,Wunderground v.1.15,2013-02-08 13:55:00,
2013-02-08 09:05:00,42.9,42.1,29.93,ESE,121,0.0,0.0,97,0.00,,,0.02,Wunderground v.1.15,2013-02-08 14:05:00,
2013-02-08 09:10:00,42.9,42.1,29.93,ESE,121,0.0,0.0,97,0.00,,,0.02,Wunderground v.1.15,2013-02-08 14:10:00,
2013-02-08 09:15:00,43.0,42.2,29.92,ESE,121,0.0,0.0,97,0.00,,,0.02,Wunderground v.1.15,2013-02-08 14:15:00,
2013-02-08 09:20:00,43.1,42.3,29.92,ESE,121,0.0,0.0,97,0.00,,,0.02,Wunderground v.1.15,2013-02-08 14:20:00,
2013-02-08 09:25:00,43.3,42.8,29.93,ESE,121,0.0,0.0,98,0.00,,,0.03,Wunderground v.1.15,2013-02-08 14:25:00,
2013-02-08 09:35:00,43.9,43.4,29.93,ESE,121,0.0,0.0,98,0.00,,,0.03,Wunderground v.1.15,2013-02-08 14:35:00,
2013-02-08 09:40:00,44.0,43.5,29.94,ESE,121,0.0,0.0,98,0.00,,,0.03,Wunderground v.1.15,2013-02-08 14:40:00,
2013-02-08 09:45:00,44.1,43.6,29.94,ESE,121,0.0,0.0,98,0.00,,,0.03,Wunderground v.1.15,2013-02-08 14:45:00,
2013-02-08 09:50:00,44.3,43.8,29.94,ESE,121,0.0,0.0,98,0.00,,,0.03,Wunderground v.1.15,2013-02-08 14:50:00,
2013-02-08 09:55:00,44.4,43.9,29.94,ESE,121,0.0,0.0,98,0.00,,,0.03,Wunderground v.1.15,2013-02-08 14:55:00,
2013-02-08 10:00:00,44.5,44.0,29.94,ESE,121,0.0,0.0,98,0.00,,,0.03,Wunderground v.1.15,2013-02-08 15:00:00,
2013-02-08 10:05:00,44.6,44.1,29.95,ESE,121,0.0,0.0,98,0.00,,,0.03,Wunderground v.1.15,2013-02-08 15:05:00,
2013-02-08 10:10:00,44.7,44.2,29.95,ESE,121,0.0,0.0,98,0.00,,,0.03,Wunderground v.1.15,2013-02-08 15:10:00,
2013-02-08 10:15:00,44.8,44.3,29.94,ESE,121,0.0,0.0,98,0.00,,,0.03,Wunderground v.1.15,2013-02-08 15:15:00,
2013-02-08 10:20:00,45.0,44.5,29.95,ESE,121,0.0,0.0,98,0.00,,,0.03,Wunderground v.1.15,2013-02-08 15:20:00,
2013-02-08 10:25:00,45.1,44.6,29.95,ESE,121,0.0,0.0,98,0.00,,,0.03,Wunderground v.1.15,2013-02-08 15:25:00,
2013-02-08 10:30:00,45.3,44.8,29.95,ESE,121,0.0,0.0,98,0.00,,,0.03,Wunderground v.1.15,2013-02-08 15:30:00,
2013-02-08 10:35:00,45.4,44.9,29.95,ESE,121,0.0,0.0,98,0.00,,,0.03,Wunderground v.1.15,2013-02-08 15:35:00,
2013-02-08 10:40:00,45.4,44.9,29.95,ESE,121,0.0,0.0,98,0.00,,,0.04,Wunderground v.1.15,2013-02-08 15:40:00,
2013-02-08 10:45:00,45.3,44.8,29.96,ESE,121,0.0,0.0,98,0.00,,,0.04,Wunderground v.1.15,2013-02-08 15:45:00,
2013-02-08 10:50:00,45.2,44.7,29.96,ESE,121,0.0,0.0,98,0.00,,,0.04,Wunderground v.1.15,2013-02-08 15:50:00,
2013-02-08 10:55:00,45.2,44.7,29.96,ESE,121,0.0,0.0,98,0.00,,,0.04,Wunderground v.1.15,2013-02-08 15:55:00,
2013-02-08 11:00:00,45.1,44.6,29.96,ESE,121,0.0,0.0,98,0.00,,,0.04,Wunderground v.1.15,2013-02-08 16:00:00,
2013-02-08 11:05:00,45.1,44.6,29.96,ESE,121,0.0,0.0,98,0.00,,,0.04,Wunderground v.1.15,2013-02-08 16:05:00,
2013-02-08 11:10:00,45.0,44.5,29.96,ESE,121,0.0,0.0,98,0.00,,,0.04,Wunderground v.1.15,2013-02-08 16:10:00,
2013-02-08 11:15:00,45.1,44.6,29.96,ESE,121,0.0,0.0,98,0.00,,,0.04,Wunderground v.1.15,2013-02-08 16:15:00,
2013-02-08 11:20:00,45.0,44.5,29.97,ESE,121,0.0,0.0,98,0.00,,,0.04,Wunderground v.1.15,2013-02-08 16:20:00,
2013-02-08 11:25:00,45.0,44.5,29.97,ESE,121,0.0,0.0,98,0.00,,,0.04,Wunderground v.1.15,2013-02-08 16:25:00,
2013-02-08 11:30:00,45.0,44.2,29.97,ESE,121,0.0,0.0,97,0.00,,,0.04,Wunderground v.1.15,2013-02-08 16:30:00,
2013-02-08 11:35:00,44.8,44.0,29.97,ESE,121,0.0,0.0,97,0.00,,,0.04,Wunderground v.1.15,2013-02-08 16:35:00,
2013-02-08 11:40:00,44.6,43.8,29.97,ESE,121,0.0,0.0,97,0.00,,,0.04,Wunderground v.1.15,2013-02-08 16:40:00,
2013-02-08 11:45:00,44.5,43.7,29.97,ESE,121,0.0,0.0,97,0.00,,,0.04,Wunderground v.1.15,2013-02-08 16:45:00,
2013-02-08 11:50:00,44.5,43.7,29.97,ESE,121,0.0,0.0,97,0.00,,,0.04,Wunderground v.1.15,2013-02-08 16:50:00,
2013-02-08 11:55:00,44.4,43.6,29.97,ESE,121,0.0,0.0,97,0.00,,,0.04,Wunderground v.1.15,2013-02-08 16:55:00,
2013-02-08 12:01:00,44.4,43.6,29.97,ESE,121,0.0,0.0,97,0.00,,,0.04,Wunderground v.1.15,2013-02-08 17:01:00,
2013-02-08 12:05:00,44.5,43.7,29.97,ESE,121,0.0,0.0,97,0.00,,,0.04,Wunderground v.1.15,2013-02-08 17:05:00,
2013-02-08 12:15:00,44.6,43.8,29.96,ESE,121,0.0,0.0,97,0.00,,,0.04,Wunderground v.1.15,2013-02-08 17:15:00,
2013-02-08 12:20:00,44.7,43.9,29.96,ESE,121,0.0,0.0,97,0.00,,,0.04,Wunderground v.1.15,2013-02-08 17:20:00,
2013-02-08 12:25:00,44.7,43.9,29.96,ESE,121,0.0,0.0,97,0.00,,,0.04,Wunderground v.1.15,2013-02-08 17:25:00,
2013-02-08 12:30:00,44.7,43.9,29.96,ESE,121,0.0,0.0,97,0.00,,,0.04,Wunderground v.1.15,2013-02-08 17:30:00,
2013-02-08 12:35:00,44.7,43.9,29.96,ESE,121,0.0,0.0,97,0.00,,,0.04,Wunderground v.1.15,2013-02-08 17:35:00,
2013-02-08 12:40:00,44.5,43.7,29.96,ESE,114,0.0,0.0,97,0.00,,,0.04,Wunderground v.1.15,2013-02-08 17:40:00,
2013-02-08 12:45:00,44.3,43.5,29.96,ESE,114,0.0,0.0,97,0.00,,,0.04,Wunderground v.1.15,2013-02-08 17:45:00,
2013-02-08 12:50:00,44.2,43.4,29.96,ESE,114,0.0,0.0,97,0.00,,,0.04,Wunderground v.1.15,2013-02-08 17:50:00,
2013-02-08 12:55:00,44.2,43.4,29.96,ESE,114,0.0,1.0,97,0.00,,,0.04,Wunderground v.1.15,2013-02-08 17:55:00,
2013-02-08 13:00:00,44.3,43.5,29.96,ESE,114,0.0,0.0,97,0.00,,,0.04,Wunderground v.1.15,2013-02-08 18:00:00,
2013-02-08 13:05:00,44.4,43.6,29.95,SE,128,0.0,2.0,97,0.00,,,0.04,Wunderground v.1.15,2013-02-08 18:05:00,
2013-02-08 13:10:00,44.6,44.1,29.95,ESE,117,0.0,0.0,98,0.00,,,0.04,Wunderground v.1.15,2013-02-08 18:10:00,
2013-02-08 13:15:00,44.7,44.2,29.95,ESE,117,0.0,0.0,98,0.00,,,0.04,Wunderground v.1.15,2013-02-08 18:15:00,
2013-02-08 13:20:00,44.9,44.1,29.95,ESE,117,0.0,0.0,97,0.00,,,0.04,Wunderground v.1.15,2013-02-08 18:20:00,
2013-02-08 13:30:00,44.9,44.4,29.94,ESE,117,0.0,0.0,98,0.00,,,0.04,Wunderground v.1.15,2013-02-08 18:30:00,
2013-02-08 13:35:00,44.9,44.1,29.94,ESE,117,0.0,0.0,97,0.00,,,0.04,Wunderground v.1.15,2013-02-08 18:35:00,
2013-02-08 13:45:00,45.0,44.5,29.94,ESE,117,0.0,0.0,98,0.00,,,0.04,Wunderground v.1.15,2013-02-08 18:45:00,
2013-02-08 13:50:00,45.0,44.5,29.94,ESE,117,0.0,0.0,98,0.00,,,0.04,Wunderground v.1.15,2013-02-08 18:50:00,
2013-02-08 13:55:00,45.0,44.5,29.94,ESE,117,0.0,0.0,98,0.00,,,0.04,Wunderground v.1.15,2013-02-08 18:55:00,
2013-02-08 14:00:00,45.0,44.2,29.93,WSW,245,0.0,0.0,97,0.00,,,0.04,Wunderground v.1.15,2013-02-08 19:00:00,
2013-02-08 14:05:00,45.0,44.2,29.93,WSW,246,0.0,0.0,97,0.00,,,0.04,Wunderground v.1.15,2013-02-08 19:05:00,
2013-02-08 14:10:00,45.0,44.2,29.94,WSW,248,0.0,1.0,97,0.00,,,0.04,Wunderground v.1.15,2013-02-08 19:10:00,
2013-02-08 14:15:00,45.0,44.2,29.93,WSW,250,0.0,1.0,97,0.00,,,0.04,Wunderground v.1.15,2013-02-08 19:15:00,
2013-02-08 14:20:00,45.0,44.2,29.94,WSW,250,0.0,0.0,97,0.00,,,0.04,Wunderground v.1.15,2013-02-08 19:20:00,
2013-02-08 14:25:00,45.0,44.2,29.94,WSW,249,0.0,0.0,97,0.00,,,0.04,Wunderground v.1.15,2013-02-08 19:25:00,
2013-02-08 14:35:00,44.7,43.9,29.95,West,260,1.0,2.0,97,0.00,,,0.04,Wunderground v.1.15,2013-02-08 19:35:00,
2013-02-08 14:40:00,44.7,43.9,29.95,West,265,1.0,1.0,97,0.00,,,0.04,Wunderground v.1.15,2013-02-08 19:40:00,
2013-02-08 14:45:00,45.7,44.9,29.95,West,265,1.0,1.0,97,0.00,,,0.04,Wunderground v.1.15,2013-02-08 19:45:00,
2013-02-08 14:50:00,47.1,46.6,29.95,WNW,295,1.0,1.0,98,0.00,,,0.04,Wunderground v.1.15,2013-02-08 19:50:00,
2013-02-08 14:55:00,48.1,47.6,29.95,WNW,296,1.0,1.0,98,0.00,,,0.04,Wunderground v.1.15,2013-02-08 19:55:00,
2013-02-08 15:00:00,48.9,47.5,29.94,WNW,284,1.0,1.0,95,0.00,,,0.04,Wunderground v.1.15,2013-02-08 20:00:00,
2013-02-08 15:05:00,50.1,47.6,29.94,NNW,344,1.0,1.0,91,0.00,,,0.04,Wunderground v.1.15,2013-02-08 20:05:00,
2013-02-08 15:10:00,50.8,47.7,29.94,NNW,340,1.0,1.0,89,0.00,,,0.04,Wunderground v.1.15,2013-02-08 20:10:00,
2013-02-08 15:15:00,51.4,47.7,29.94,WNW,294,0.0,1.0,87,0.00,,,0.04,Wunderground v.1.15,2013-02-08 20:15:00,
2013-02-08 15:20:00,52.1,46.8,29.94,WNW,298,1.0,1.0,82,0.00,,,0.04,Wunderground v.1.15,2013-02-08 20:20:00,
2013-02-08 15:25:00,52.8,46.1,29.94,WNW,298,1.0,1.0,78,0.00,,,0.04,Wunderground v.1.15,2013-02-08 20:25:00,
2013-02-08 15:30:00,53.1,46.1,29.95,NW,304,1.0,1.0,77,0.00,,,0.04,Wunderground v.1.15,2013-02-08 20:30:00,
2013-02-08 15:35:00,53.5,45.4,29.95,West,267,1.0,2.0,74,0.00,,,0.04,Wunderground v.1.15,2013-02-08 20:35:00,
2013-02-08 15:40:00,54.1,46.7,29.95,West,272,0.0,0.0,76,0.00,,,0.04,Wunderground v.1.15,2013-02-08 20:40:00,
2013-02-08 15:45:00,54.9,47.1,29.95,West,269,0.0,0.0,75,0.00,,,0.04,Wunderground v.1.15,2013-02-08 20:45:00,
2013-02-08 15:55:00,55.9,45.9,29.95,West,271,0.0,1.0,69,0.00,,,0.04,Wunderground v.1.15,2013-02-08 20:55:00,
2013-02-08 16:00:00,56.2,45.8,29.95,West,275,0.0,0.0,68,0.00,,,0.04,Wunderground v.1.15,2013-02-08 21:00:00,
2013-02-08 16:05:00,56.3,45.1,29.95,West,279,1.0,1.0,66,0.00,,,0.04,Wunderground v.1.15,2013-02-08 21:05:00,
2013-02-08 16:10:00,56.1,44.9,29.95,WNW,284,1.0,1.0,66,0.00,,,0.04,Wunderground v.1.15,2013-02-08 21:10:00,
2013-02-08 16:15:00,55.9,43.1,29.95,WNW,286,1.0,1.0,62,0.00,,,0.04,Wunderground v.1.15,2013-02-08 21:15:00,
2013-02-08 16:20:00,55.7,43.3,29.95,WNW,286,1.0,1.0,63,0.00,,,0.04,Wunderground v.1.15,2013-02-08 21:20:00,
2013-02-08 16:25:00,55.5,44.3,29.95,WNW,286,0.0,1.0,66,0.00,,,0.04,Wunderground v.1.15,2013-02-08 21:25:00,
2013-02-08 16:30:00,55.3,42.1,29.96,WNW,284,1.0,1.0,61,0.00,,,0.04,Wunderground v.1.15,2013-02-08 21:30:00,
2013-02-08 16:35:00,55.0,43.0,29.96,WNW,285,1.0,2.0,64,0.00,,,0.04,Wunderground v.1.15,2013-02-08 21:35:00,
2013-02-08 16:40:00,54.7,42.8,29.96,WNW,286,0.0,0.0,64,0.00,,,0.04,Wunderground v.1.15,2013-02-08 21:40:00,
2013-02-08 16:45:00,54.6,41.4,29.96,WNW,286,0.0,1.0,61,0.00,,,0.04,Wunderground v.1.15,2013-02-08 21:45:00,
2013-02-08 16:50:00,54.5,41.3,29.97,WNW,287,0.0,1.0,61,0.00,,,0.04,Wunderground v.1.15,2013-02-08 21:50:00,
2013-02-08 16:55:00,54.2,39.7,29.97,NW,304,1.0,1.0,58,0.00,,,0.04,Wunderground v.1.15,2013-02-08 21:55:00,
2013-02-08 17:00:00,53.7,40.1,29.97,WNW,303,1.0,3.0,60,0.00,,,0.04,Wunderground v.1.15,2013-02-08 22:00:00,
2013-02-08 17:05:00,53.2,39.7,29.97,WNW,287,1.0,3.0,60,0.00,,,0.04,Wunderground v.1.15,2013-02-08 22:05:00,
2013-02-08 17:15:00,52.5,39.4,29.98,WNW,284,1.0,1.0,61,0.00,,,0.04,Wunderground v.1.15,2013-02-08 22:15:00,
2013-02-08 17:20:00,51.9,38.4,29.98,WNW,285,1.0,2.0,60,0.00,,,0.04,Wunderground v.1.15,2013-02-08 22:20:00,
2013-02-08 17:25:00,51.2,38.6,29.99,WNW,299,1.0,2.0,62,0.00,,,0.04,Wunderground v.1.15,2013-02-08 22:25:00,
2013-02-08 17:30:00,50.6,37.6,29.99,WNW,299,1.0,1.0,61,0.00,,,0.04,Wunderground v.1.15,2013-02-08 22:30:00,
2013-02-08 17:40:00,49.0,37.3,29.98,WNW,302,1.0,2.0,64,0.00,,,0.04,Wunderground v.1.15,2013-02-08 22:40:00,
2013-02-08 17:45:00,48.2,38.1,29.98,WNW,302,1.0,2.0,68,0.00,,,0.04,Wunderground v.1.15,2013-02-08 22:45:00,
2013-02-08 17:50:00,47.4,37.7,29.98,WNW,302,1.0,1.0,69,0.00,,,0.04,Wunderground v.1.15,2013-02-08 22:50:00,
2013-02-08 17:55:00,46.6,37.7,29.99,WNW,303,1.0,2.0,71,0.00,,,0.04,Wunderground v.1.15,2013-02-08 22:55:00,
2013-02-08 18:05:00,45.0,37.2,29.98,WNW,298,1.0,2.0,74,0.00,,,0.04,Wunderground v.1.15,2013-02-08 23:05:00,
2013-02-08 18:15:00,43.6,36.2,29.99,WNW,302,1.0,1.0,75,0.00,,,0.04,Wunderground v.1.15,2013-02-08 23:15:00,
2013-02-08 18:20:00,43.1,36.0,29.99,WNW,302,1.0,1.0,76,0.00,,,0.04,Wunderground v.1.15,2013-02-08 23:20:00,
2013-02-08 18:25:00,42.6,35.9,29.99,WNW,302,1.0,2.0,77,0.00,,,0.04,Wunderground v.1.15,2013-02-08 23:25:00,
2013-02-08 18:30:00,42.2,35.8,29.99,WNW,302,0.0,0.0,78,0.00,,,0.04,Wunderground v.1.15,2013-02-08 23:30:00,
2013-02-08 18:35:00,41.9,35.5,29.99,WNW,302,0.0,0.0,78,0.00,,,0.04,Wunderground v.1.15,2013-02-08 23:35:00,
2013-02-08 18:40:00,41.5,35.2,30.00,WNW,302,0.0,0.0,78,0.00,,,0.04,Wunderground v.1.15,2013-02-08 23:40:00,
2013-02-08 18:45:00,41.2,35.2,30.00,WNW,302,0.0,0.0,79,0.00,,,0.04,Wunderground v.1.15,2013-02-08 23:45:00,
2013-02-08 18:50:00,41.0,35.3,30.01,WNW,302,0.0,0.0,80,0.00,,,0.04,Wunderground v.1.15,2013-02-08 23:50:00,
2013-02-08 18:55:00,40.6,35.2,30.01,WNW,302,0.0,0.0,81,0.00,,,0.04,Wunderground v.1.15,2013-02-08 23:55:00,
2013-02-08 19:00:00,40.3,35.2,30.01,WNW,302,0.0,0.0,82,0.00,,,0.04,Wunderground v.1.15,2013-02-09 00:00:00,
2013-02-08 19:05:00,39.9,34.9,30.02,WNW,302,0.0,0.0,82,0.00,,,0.04,Wunderground v.1.15,2013-02-09 00:05:00,
2013-02-08 19:10:00,39.5,34.8,30.02,NW,312,0.0,1.0,83,0.00,,,0.04,Wunderground v.1.15,2013-02-09 00:10:00,
2013-02-08 19:20:00,38.9,34.5,30.03,NW,312,0.0,0.0,84,0.00,,,0.04,Wunderground v.1.15,2013-02-09 00:20:00,
2013-02-08 19:25:00,38.6,34.2,30.03,NW,311,0.0,0.0,84,0.00,,,0.04,Wunderground v.1.15,2013-02-09 00:25:00,
2013-02-08 19:30:00,38.3,33.9,30.03,NW,315,0.0,0.0,84,0.00,,,0.04,Wunderground v.1.15,2013-02-09 00:30:00,
2013-02-08 19:35:00,38.0,33.6,30.03,NW,316,0.0,0.0,84,0.00,,,0.04,Wunderground v.1.15,2013-02-09 00:35:00,
2013-02-08 19:40:00,37.7,33.6,30.03,NW,315,0.0,1.0,85,0.00,,,0.04,Wunderground v.1.15,2013-02-09 00:40:00,
2013-02-08 19:45:00,37.5,33.4,30.04,NW,316,0.0,1.0,85,0.00,,,0.04,Wunderground v.1.15,2013-02-09 00:45:00,
2013-02-08 19:50:00,37.2,33.1,30.04,NW,316,0.0,0.0,85,0.00,,,0.04,Wunderground v.1.15,2013-02-09 00:50:00,
2013-02-08 19:55:00,36.9,32.8,30.05,NW,316,0.0,0.0,85,0.00,,,0.04,Wunderground v.1.15,2013-02-09 00:55:00,
2013-02-08 20:00:00,36.6,32.5,30.05,NW,316,0.0,0.0,85,0.00,,,0.04,Wunderground v.1.15,2013-02-09 01:00:00,
2013-02-08 20:05:00,36.4,32.6,30.05,NW,316,0.0,0.0,86,0.00,,,0.04,Wunderground v.1.15,2013-02-09 01:05:00,
2013-02-08 20:10:00,36.1,32.3,30.05,NW,315,0.0,0.0,86,0.00,,,0.04,Wunderground v.1.15,2013-02-09 01:10:00,
2013-02-08 20:15:00,35.9,32.1,30.06,NW,316,0.0,0.0,86,0.00,,,0.04,Wunderground v.1.15,2013-02-09 01:15:00,
2013-02-08 20:20:00,35.7,32.2,30.06,NW,315,0.0,0.0,87,0.00,,,0.04,Wunderground v.1.15,2013-02-09 01:20:00,
2013-02-08 20:25:00,35.5,32.0,30.05,NW,316,0.0,0.0,87,0.00,,,0.04,Wunderground v.1.15,2013-02-09 01:25:00,
2013-02-08 20:35:00,35.0,31.5,30.06,NW,315,0.0,0.0,87,0.00,,,0.04,Wunderground v.1.15,2013-02-09 01:35:00,
2013-02-08 20:40:00,34.8,31.3,30.07,NW,316,0.0,0.0,87,0.00,,,0.04,Wunderground v.1.15,2013-02-09 01:40:00,
2013-02-08 20:45:00,34.6,31.4,30.07,NW,315,0.0,0.0,88,0.00,,,0.04,Wunderground v.1.15,2013-02-09 01:45:00,
2013-02-08 20:50:00,34.4,31.2,30.07,NW,315,0.0,0.0,88,0.00,,,0.04,Wunderground v.1.15,2013-02-09 01:50:00,
2013-02-08 21:00:00,34.3,31.1,30.08,NW,313,0.0,0.0,88,0.00,,,0.04,Wunderground v.1.15,2013-02-09 02:00:00,
2013-02-08 21:05:00,34.0,30.8,30.08,NW,313,0.0,0.0,88,0.00,,,0.04,Wunderground v.1.15,2013-02-09 02:05:00,
2013-02-08 21:10:00,33.9,31.0,30.08,NW,313,0.0,0.0,89,0.00,,,0.04,Wunderground v.1.15,2013-02-09 02:10:00,
2013-02-08 21:15:00,33.8,30.9,30.08,NW,313,0.0,0.0,89,0.00,,,0.04,Wunderground v.1.15,2013-02-09 02:15:00,
2013-02-08 21:20:00,33.7,30.8,30.09,NW,313,0.0,0.0,89,0.00,,,0.04,Wunderground v.1.15,2013-02-09 02:20:00,
2013-02-08 21:25:00,33.5,30.6,30.09,NW,313,0.0,0.0,89,0.00,,,0.04,Wunderground v.1.15,2013-02-09 02:25:00,
2013-02-08 21:30:00,33.4,30.5,30.09,NW,313,0.0,0.0,89,0.00,,,0.04,Wunderground v.1.15,2013-02-09 02:30:00,
2013-02-08 21:35:00,33.2,30.3,30.09,NW,313,0.0,0.0,89,0.00,,,0.04,Wunderground v.1.15,2013-02-09 02:35:00,
2013-02-08 21:40:00,33.1,30.2,30.09,NW,313,0.0,0.0,89,0.00,,,0.04,Wunderground v.1.15,2013-02-09 02:40:00,
2013-02-08 21:45:00,32.9,30.0,30.10,NW,313,0.0,0.0,89,0.00,,,0.04,Wunderground v.1.15,2013-02-09 02:45:00,
2013-02-08 21:50:00,32.8,30.2,30.11,NW,313,0.0,0.0,90,0.00,,,0.04,Wunderground v.1.15,2013-02-09 02:50:00,
2013-02-08 21:55:00,32.7,30.1,30.12,NW,313,0.0,1.0,90,0.00,,,0.04,Wunderground v.1.15,2013-02-09 02:55:00,
2013-02-08 22:00:00,32.7,30.1,30.12,NW,313,0.0,0.0,90,0.00,,,0.04,Wunderground v.1.15,2013-02-09 03:00:00,
2013-02-08 22:05:00,32.6,30.0,30.12,NW,313,0.0,1.0,90,0.00,,,0.04,Wunderground v.1.15,2013-02-09 03:05:00,
2013-02-08 22:10:00,32.6,30.0,30.12,NW,313,0.0,0.0,90,0.00,,,0.04,Wunderground v.1.15,2013-02-09 03:10:00,
2013-02-08 22:15:00,32.5,29.9,30.12,NW,313,0.0,0.0,90,0.00,,,0.04,Wunderground v.1.15,2013-02-09 03:15:00,
2013-02-08 22:25:00,32.3,29.7,30.13,NW,313,0.0,0.0,90,0.00,,,0.04,Wunderground v.1.15,2013-02-09 03:25:00,
2013-02-08 22:30:00,32.2,29.6,30.13,NW,313,0.0,0.0,90,0.00,,,0.04,Wunderground v.1.15,2013-02-09 03:30:00,
2013-02-08 22:35:00,32.1,29.5,30.14,NW,313,0.0,0.0,90,0.00,,,0.04,Wunderground v.1.15,2013-02-09 03:35:00,
2013-02-08 22:40:00,32.0,29.7,30.13,NW,313,0.0,0.0,91,0.00,,,0.04,Wunderground v.1.15,2013-02-09 03:40:00,
2013-02-08 22:45:00,31.9,29.3,30.14,NW,313,0.0,0.0,90,0.00,,,0.04,Wunderground v.1.15,2013-02-09 03:45:00,
2013-02-08 22:50:00,31.8,29.5,30.13,NW,313,0.0,0.0,91,0.00,,,0.04,Wunderground v.1.15,2013-02-09 03:50:00,
2013-02-08 22:55:00,31.6,29.0,30.13,NW,313,0.0,0.0,90,0.00,,,0.04,Wunderground v.1.15,2013-02-09 03:55:00,
2013-02-08 23:00:00,31.5,28.9,30.13,NW,313,0.0,0.0,90,0.00,,,0.04,Wunderground v.1.15,2013-02-09 04:00:00,
2013-02-08 23:05:00,31.2,28.6,30.13,NW,313,0.0,0.0,90,0.00,,,0.04,Wunderground v.1.15,2013-02-09 04:05:00,
2013-02-08 23:10:00,31.1,28.8,30.13,NW,313,0.0,0.0,91,0.00,,,0.04,Wunderground v.1.15,2013-02-09 04:10:00,
2013-02-08 23:15:00,30.8,28.5,30.13,NW,313,0.0,0.0,91,0.00,,,0.04,Wunderground v.1.15,2013-02-09 04:15:00,
2013-02-08 23:20:00,30.7,28.4,30.12,NW,313,0.0,0.0,91,0.00,,,0.04,Wunderground v.1.15,2013-02-09 04:20:00,
2013-02-08 23:25:00,30.4,28.1,30.12,NW,313,0.0,0.0,91,0.00,,,0.04,Wunderground v.1.15,2013-02-09 04:25:00,
2013-02-08 23:30:00,30.3,28.0,30.12,NW,313,0.0,2.0,91,0.00,,,0.04,Wunderground v.1.15,2013-02-09 04:30:00,
2013-02-08 23:35:00,30.3,28.3,30.12,NW,313,0.0,2.0,92,0.00,,,0.04,Wunderground v.1.15,2013-02-09 04:35:00,
2013-02-08 23:40:00,30.3,28.3,30.11,WNW,287,0.0,0.0,92,0.00,,,0.04,Wunderground v.1.15,2013-02-09 04:40:00,
2013-02-08 23:45:00,30.3,28.3,30.10,WNW,288,0.0,0.0,92,0.00,,,0.04,Wunderground v.1.15,2013-02-09 04:45:00,
2013-02-08 23:50:00,30.2,28.2,30.10,WNW,288,0.0,0.0,92,0.00,,,0.04,Wunderground v.1.15,2013-02-09 04:50:00,
2013-02-08 23:55:00,30.1,28.1,30.09,WNW,287,0.0,0.0,92,0.00,,,0.04,Wunderground v.1.15,2013-02-09 04:55:00,